Temperature
8 8 8 7 7 7 7 7 7 7 7 7 7 7 7 7 7 7 7 7 7 7 7 7 7 7 7 7 7 7 7 8 8 8 8 8 8 8 8 8 8 8 8
7 7 7 7 7 7 7 7 6 6 6 6 6 6 6 6 6 6 7 7 7 7 6 6 6 6 6 6 6 7 7 7 7 7 7 7 7 8 8 7 7 7 7
7 7 7 7 7 7 7 6 6 6 6 6 6 6 6 6 6 6 6 6 6 6 6 6 6 6 6 6 6 6 6 6 6 6 6 6 6 6 7 7 7 7 7
7 7 7 6 6 7 6 6 6 6 6 5 5 5 5 5 5 6 6 6 6 5 6 6 6 6 5 5 5 6 6 6 6 6 5 5 5 5 5 6 6 6 6
7 6 6 6 6 6 6 6 6 6 5 5 5 5 5 5 5 5 5 5 5 5 5 5 5 5 5 5 5 5 5 5 5 5 5 5 5 5 5 5 5 6 6
6 6 6 6 6 6 6 5 5 5 5 5 5 5 5 5 5 5 5 5 5 5 5 5 5 5 5 5 5 5 5 5 5 5 5 5 5 5 5 5 5 5 5
6 6 6 6 5 5 5 5 5 5 5 4 4 4 4 4 4 4 4 4 4 5 5 4 4 4 4 4 4 4 4 4 4 5 5 4 4 5 5 5 4 4 4
5 5 5 5 5 5 5 5 5 4 4 4 4 4 4 4 4 4 4 4 4 4 4 4 4 4 4 4 4 4 4 4 4 4 4 4 4 4 4 4 4 4 4
5 5 5 5 4 4 4 4 4 4 4 4 4 4 4 4 4 4 4 4 4 4 4 4 4 3 4 4 4 4 4 4 4 4 4 4 4 4 4 4 4 4 3
5 5 4 4 4 4 4 4 4 4 3 3 3 3 3 4 3 3 4 4 3 3 3 3 3 3 3 3 4 4 3 4 4 4 4 4 4 4 4 4 4 4 4
4 4 4 4 3 3 3 3 3 3 3 3 3 3 3 3 3 3 3 3 3 3 3 3 3 3 3 3 3 3 3 3 3 3 3 3 3 3 3 3 3 3 3
4 4 3 3 3 3 3 3 3 3 3 3 3 3 3 3 3 3 3 3 3 3 3 3 3 3 3 3 3 3 3 3 3 3 3 3 3 3 3 3 3 3 3
3 3 3 3 3 3 3 3 3 3 3 3 3 3 3 3 3 3 3 2 2 2 2 2 2 2 2 2 2 2 2 2 2 2 2 2 2 2 3 3 3 3 2
3 3 2 2 2 2 2 3 3 3 3 2 2 2 2 2 2 2 2 2 2 2 2 2 2 2 2 2 2 2 2 2 2 2 2 2 2 2 2 2 2 2 2
2 2 2 2 2 2 2 2 2 2 2 2 2 2 2 2 2 2 2 2 2 2 2 2 1 1 1 1 1 1 1 2 2 1 1 2 1 1 1 2 2 2 1
2 2 2 1 1 1 1 2 2 2 2 2 2 2 2 1 1 2 1 1 1 1 1 1 1 1 1 1 1 1 1 1 1 1 1 1 1 1 1 1 1 1 1
2 1 1 1 1 1 1 1 2 2 2 1 1 1 1 1 1 1 1 1 1 1 1 1 1 1 1 1 0 1 1 1 0 0 0 0 0 0 1 1 1 1 1
1 1 1 1 1 1 1 1 1 1 1 1 1 1 1 1 1 1 1 1 1 1 1 0 0 0 0 0 -0 -0 0 0 0 -0 -0 -0 0 0 0 0 0 0 0
1 1 0 0 0 1 1 1 1 1 1 1 1 1 1 0 0 0 0 0 -0 0 -0 -0 -0 -0 -0 -0 -0 -1 -0 -0 -0 -0 -0 -0 -0 -0 -0 -0 -0 -0 -0
1 1 0 0 0 0 0 0 0 0 0 0 0 0 0 -0 -0 -0 -0 -0 -1 -1 -1 -1 -1 -1 -1 -1 -1 -1 -1 -1 -1 -1 -1 -1 -1 -1 -1 -1 -1 -1 -1
1 1 0 0 0 0 0 0 0 -0 -0 -0 -0 -0 -0 -0 -1 -1 -1 -1 -1 -1 -1 -1 -1 -1 -1 -1 -1 -1 -1 -1 -1 -1 -1 -1 -1 -1 -1 -1 -1 -1 -1
1 0 0 -0 -0 -0 -0 -0 -0 -0 -1 -0 -0 -0 -1 -1 -1 -1 -1 -1 -2 -2 -2 -2 -2 -2 -2 -2 -2 -2 -2 -2 -1 -2 -1 -2 -2 -2 -1 -1 -1 -1 -2
0 -0 -0 -0 -0 -1 -1 -1 -1 -1 -1 -1 -1 -1 -1 -1 -1 -1 -2 -2 -2 -2 -2 -2 -2 -2 -2 -2 -2 -2 -2 -2 -2 -2 -2 -2 -2 -2 -2 -2 -2 -2 -2
-0 -0 -1 -1 -1 -1 -1 -1 -1 -1 -1 -1 -1 -1 -1 -2 -2 -2 -2 -2 -2 -2 -3 -3 -3 -2 -2 -3 -3 -2 -2 -2 -2 -2 -2 -2 -2 -2 -2 -2 -2 -2 -2
-0 -1 -1 -1 -1 -1 -1 -1 -1 -1 -1 -1 -1 -2 -2 -2 -2 -2 -3 -3 -3 -3 -3 -3 -3 -3 -3 -3 -3 -3 -3 -3 -3 -3 -3 -3 -3 -3 -3 -3 -3 -3 -3
-1 -1 -1 -1 -1 -1 -2 -2 -2 -2 -2 -2 -2 -2 -2 -2 -2 -3 -3 -3 -3 -3 -3 -3 -3 -3 -3 -3 -3 -3 -3 -3 -3 -3 -3 -3 -3 -3 -3 -3 -3 -3 -3
Wind_Speed
6 3 3 3 2 1 1 2 2 2 1 1 1 1 1 1 1 2 2 2 2 2 1 1 1 1 1 1 1 1 2 2 1 1 2 3 2 2 2 1 1 1 2
4 3 2 2 3 3 3 2 2 2 2 2 2 1 1 2 2 2 2 2 2 2 2 1 1 1 1 1 1 1 1 1 1 0 1 2 2 2 2 1 1 1 1
6 5 3 4 3 3 3 2 2 1 2 2 1 0 0 1 1 1 1 2 2 2 2 2 2 1 2 2 2 2 2 2 2 0 1 1 2 2 2 2 2 1 1
5 5 4 4 4 4 3 2 2 2 2 2 2 2 2 2 3 2 2 2 2 3 3 3 2 2 2 3 3 2 2 2 2 2 2 2 2 2 2 2 1 1 2
5 6 6 5 4 3 3 2 2 2 2 2 3 3 2 3 2 2 2 2 2 3 3 3 2 2 2 3 3 2 2 2 3 3 2 2 2 2 2 4 3 2 2
4 4 4 3 2 2 2 2 2 2 2 2 2 3 3 3 3 3 3 3 2 2 3 3 3 3 3 3 3 3 3 3 3 3 3 2 2 2 2 3 4 4 3
2 2 2 2 2 2 2 2 2 2 2 2 2 3 4 4 4 4 4 3 3 3 4 3 3 3 3 4 3 3 3 4 4 4 3 3 3 3 2 2 3 4 4
2 2 3 2 2 2 2 2 3 3 3 3 3 3 3 3 3 4 4 4 4 4 4 3 3 4 4 4 3 3 4 3 4 4 4 3 3 3 3 3 2 3 3
2 2 2 2 2 3 3 3 3 3 3 3 3 3 4 3 3 4 3 3 4 3 3 3 3 4 4 3 3 3 4 4 4 4 4 4 3 3 3 3 3 3 2
3 3 2 2 2 3 3 3 2 3 3 3 3 3 3 3 3 3 3 4 4 4 3 3 3 3 3 3 3 4 4 4 4 4 4 4 3 3 3 2 2 2 3
3 3 3 3 2 2 2 2 2 3 3 3 3 3 3 3 3 3 3 4 3 3 4 4 3 3 3 3 3 4 4 4 4 4 4 4 4 3 3 2 2 2 2
3 2 2 3 3 3 3 3 3 3 3 3 2 3 2 2 3 3 3 3 4 4 4 3 3 3 3 3 4 4 4 5 5 4 4 4 3 3 3 2 2 2 2
3 3 2 3 3 3 3 3 3 3 3 2 2 2 2 2 3 3 3 3 3 3 3 3 3 4 4 4 4 4 4 4 4 3 3 3 3 3 2 2 2 2 1
3 3 4 4 3 4 3 3 3 2 2 2 2 2 3 3 3 3 3 3 3 3 3 3 3 4 4 4 4 3 3 3 2 2 2 2 2 3 3 2 2 2 1
4 4 4 4 4 4 4 4 3 3 2 2 2 3 3 2 2 2 2 3 3 3 3 3 3 3 3 3 3 3 2 2 1 1 1 1 2 2 1 1 2 2 2
5 5 5 5 4 4 4 4 4 3 2 2 2 2 2 2 2 2 2 2 2 2 2 3 3 3 3 4 3 2 2 2 2 1 0 0 1 2 2 2 1 1 2
6 6 6 5 5 5 4 4 4 3 2 2 2 2 2 1 2 2 1 2 2 1 2 2 2 2 3 3 2 1 2 2 2 1 1 0 1 1 1 1 2 2 1
6 6 6 6 5 5 4 3 3 2 2 2 2 2 2 2 1 1 1 1 1 0 1 1 1 1 2 2 1 1 2 2 2 2 2 1 1 1 0 1 1 1 1
5 5 5 5 5 4 4 3 2 2 2 2 3 3 2 2 1 2 2 1 1 1 0 0 0 0 2 2 1 1 2 2 1 1 1 1 2 1 1 2 2 1 2
4 3 4 4 4 4 3 2 2 2 3 4 3 3 2 2 2 2 1 1 0 0 0 0 0 0 1 2 1 1 2 2 1 0 0 0 1 0 1 2 2 1 1
4 3 3 3 3 3 2 2 2 3 4 4 3 2 2 2 2 1 0 0 0 0 0 0 0 0 1 1 1 0 1 2 2 1 0 0 1 1 2 2 2 1 2
4 3 3 4 4 3 2 3 4 4 3 2 2 2 2 2 1 0 0 0 1 1 0 0 0 0 1 1 1 1 1 2 2 1 1 1 2 2 3 3 3 4 3
3 3 3 4 4 3 2 3 5 4 3 2 2 2 1 1 0 1 0 0 1 0 0 1 1 0 0 1 1 2 2 2 2 2 3 3 4 4 3 4 5 4 2
3 3 2 3 4 4 3 4 4 2 2 2 1 1 0 0 0 0 0 0 0 0 1 1 1 0 0 1 1 1 1 2 2 2 3 5 5 4 4 4 4 3 2
3 2 3 4 5 4 4 4 3 2 1 1 1 1 0 1 0 0 0 0 1 1 1 1 1 1 1 0 1 1 1 1 2 3 3 2 2 2 2 2 2 2 2
3 3 3 4 4 4 4 4 3 1 0 1 1 0 0 0 1 1 1 2 1 1 2 2 1 1 1 2 2 2 3 3 3 4 3 2 2 2 2 1 2 2 2
Wind_Direction
250 240 227 219 216 232 235 228 224 233 211 219 190 180 246 258 266 257 252 254 266 268 255 271 301 306 265 261 263 270 297 303 305 320 320 314 297 279 266 247 227 242 255
263 256 246 230 226 227 230 228 220 228 211 207 204 201 216 242 250 261 267 259 251 246 250 234 247 241 255 280 290 279 263 295 328 307 331 310 315 326 302 264 224 252 273
233 243 238 232 234 240 235 236 228 246 234 215 195 126 33 340 311 282 268 262 247 237 231 230 228 228 233 237 244 240 228 255 290 251 194 236 261 295 285 257 239 232 247
235 234 233 234 233 240 238 227 227 234 238 205 187 184 209 243 256 249 250 273 260 244 233 225 220 226 229 239 244 240 238 225 248 276 256 230 239 254 286 283 258 258 261
236 235 232 230 236 238 229 226 228 241 237 211 199 197 222 246 259 260 256 265 266 257 248 235 223 229 234 235 235 241 244 232 232 241 253 266 274 248 243 273 294 308 282
249 248 245 234 238 237 223 217 223 248 238 215 209 214 223 239 251 253 249 258 265 268 257 247 235 235 235 236 236 233 236 242 238 241 239 240 246 250 245 259 277 289 292
246 256 259 251 256 254 238 229 223 250 251 235 238 239 233 228 233 243 241 245 256 269 261 257 245 246 243 237 228 230 237 238 238 238 240 245 250 255 249 241 269 285 292
264 266 261 248 251 260 256 239 231 245 241 235 247 248 238 239 242 239 241 242 245 251 253 243 245 252 253 249 232 229 235 236 237 245 243 248 255 253 246 237 241 283 286
275 280 284 276 261 258 259 248 236 244 248 249 256 257 241 242 253 253 249 250 248 255 253 243 244 247 248 243 235 233 235 235 239 242 244 246 255 254 250 240 213 218 243
286 290 295 288 283 272 271 262 235 235 244 245 246 261 255 249 249 249 251 251 254 255 259 251 248 249 252 251 240 242 238 234 245 244 240 245 251 256 249 239 233 216 197
278 288 302 304 296 298 285 273 259 258 253 249 255 259 269 270 259 249 249 248 249 247 254 250 248 248 255 257 248 247 240 236 247 247 240 243 236 243 251 243 234 222 185
290 290 303 311 309 303 296 289 278 268 263 255 253 255 264 268 265 253 250 252 247 247 249 244 248 249 253 256 252 253 250 240 242 242 237 237 230 233 243 231 224 217 196
311 318 315 304 298 295 288 286 284 280 279 269 262 268 269 268 266 258 252 249 244 247 247 239 244 251 255 258 254 250 246 237 235 229 233 233 215 226 235 223 214 213 194
301 308 306 301 295 295 294 302 295 287 288 286 278 275 269 259 259 258 246 247 243 240 236 239 245 252 256 258 255 249 240 235 223 225 228 239 231 224 222 219 206 193 170
306 304 304 303 299 306 310 308 302 298 292 296 291 277 276 276 278 281 258 248 247 244 233 235 249 256 256 255 243 236 228 212 202 221 224 264 280 275 262 243 210 191 181
298 300 299 302 297 295 296 297 296 290 287 281 285 296 294 288 286 287 287 266 253 240 227 235 240 253 265 279 270 246 192 174 172 187 212 281 291 295 312 305 296 228 182
303 303 299 295 291 284 281 282 285 288 276 273 288 298 287 283 291 299 309 288 264 240 229 228 231 254 266 281 285 277 170 163 171 179 199 268 312 322 277 342 24 12 9
298 300 303 302 298 296 294 289 292 279 266 280 288 285 284 281 290 313 305 304 316 260 238 242 229 244 271 285 260 232 144 156 173 185 196 202 244 256 217 107 76 30 5
283 286 291 295 297 301 304 298 301 293 285 278 278 280 276 281 297 289 282 301 340 344 316 280 235 249 294 313 237 158 153 143 155 189 198 201 225 261 94 113 105 59 22
298 297 304 310 307 305 308 302 299 297 284 275 270 271 272 265 269 275 271 307 33 301 332 25 253 238 289 327 329 168 162 150 147 137 211 235 178 51 97 123 129 108 47
297 303 314 312 304 307 312 305 300 287 282 282 279 280 280 271 266 269 285 51 73 49 39 45 2 290 286 333 349 171 163 158 143 128 120 231 112 74 87 93 122 96 70
301 304 312 310 308 308 306 304 293 293 299 298 298 290 290 283 278 159 1 34 78 75 12 7 342 306 285 328 329 71 93 120 138 149 140 102 81 97 89 75 74 75 69
293 299 297 304 309 310 301 284 289 302 311 317 308 295 294 299 262 145 124 59 70 98 306 311 298 299 14 359 34 61 63 71 103 127 113 91 74 73 75 77 74 69 72
291 296 304 302 303 308 306 287 291 310 316 305 302 304 250 311 20 58 144 146 184 177 248 266 245 144 70 74 95 80 68 68 80 90 91 80 79 76 73 67 55 53 65
292 284 273 280 288 298 301 306 309 316 316 317 325 337 321 190 137 357 284 215 221 224 220 202 166 152 159 141 100 117 113 114 121 104 90 85 90 81 73 63 57 58 54
283 288 285 285 288 293 298 309 312 300 303 328 322 305 331 101 118 83 13 351 336 357 49 64 83 68 79 100 86 78 79 88 101 103 99 103 108 104 94 82 64 60 59
Height
1492 1493 1492 1492 1491 1490 1489 1488 1487 1487 1486 1486 1485 1485 1485 1486 1486 1486 1485 1485 1485 1485 1485 1484 1484 1483 1483 1484 1484 1484 1484 1484 1484 1483 1482 1482 1482 1481 1481 1481 1481 1481 1482
1490 1489 1489 1488 1488 1487 1486 1485 1484 1484 1484 1483 1483 1483 1483 1483 1483 1483 1482 1482 1482 1482 1481 1481 1481 1481 1481 1481 1481 1481 1481 1481 1482 1481 1480 1479 1479 1478 1478 1478 1478 1478 1478
1486 1486 1485 1485 1484 1483 1482 1482 1481 1481 1481 1481 1480 1480 1480 1479 1480 1479 1479 1479 1479 1478 1478 1478 1478 1477 1477 1478 1478 1478 1478 1478 1479 1479 1479 1478 1475 1474 1474 1474 1474 1475 1475
1483 1483 1482 1481 1481 1480 1480 1479 1479 1478 1478 1478 1478 1477 1476 1476 1476 1476 1476 1476 1475 1475 1475 1475 1474 1474 1474 1475 1475 1475 1475 1476 1475 1476 1476 1476 1475 1474 1471 1471 1471 1471 1471
1480 1479 1479 1478 1478 1477 1477 1476 1476 1476 1475 1475 1474 1474 1473 1473 1473 1473 1472 1472 1472 1472 1472 1471 1471 1471 1471 1471 1471 1472 1472 1472 1472 1473 1472 1472 1472 1471 1470 1467 1466 1467 1467
1477 1476 1476 1476 1475 1474 1474 1473 1473 1472 1472 1472 1471 1470 1470 1470 1469 1469 1469 1468 1468 1468 1468 1468 1468 1467 1467 1467 1468 1468 1469 1469 1469 1469 1469 1468 1468 1467 1467 1465 1463 1463 1462
1475 1474 1473 1472 1472 1471 1471 1470 1470 1469 1468 1468 1468 1467 1467 1466 1466 1465 1465 1465 1464 1464 1464 1464 1464 1464 1464 1464 1464 1465 1465 1465 1465 1465 1465 1465 1464 1464 1464 1463 1461 1460 1459
1473 1472 1471 1470 1469 1469 1468 1468 1467 1466 1465 1465 1465 1464 1464 1463 1462 1462 1462 1461 1460 1460 1461 1461 1461 1461 1460 1460 1461 1461 1461 1461 1461 1461 1461 1461 1461 1461 1460 1459 1458 1457 1456
1471 1470 1469 1468 1467 1466 1466 1465 1464 1463 1462 1462 1461 1461 1460 1459 1458 1458 1458 1457 1457 1457 1457 1457 1457 1457 1457 1457 1457 1457 1457 1457 1457 1457 1457 1456 1456 1456 1456 1456 1456 1456 1453
1469 1468 1467 1466 1465 1464 1464 1462 1461 1460 1460 1459 1458 1457 1456 1455 1454 1454 1453 1453 1454 1453 1453 1454 1453 1453 1453 1453 1453 1453 1453 1453 1453 1453 1452 1452 1452 1452 1452 1452 1452 1452 1451
1467 1466 1466 1465 1464 1462 1461 1459 1458 1457 1456 1455 1454 1453 1452 1451 1451 1450 1450 1450 1450 1450 1450 1450 1450 1449 1449 1449 1449 1449 1449 1449 1449 1448 1448 1447 1448 1448 1448 1448 1448 1449 1448
1467 1466 1464 1463 1461 1459 1458 1456 1455 1454 1453 1452 1450 1449 1448 1448 1447 1447 1446 1446 1446 1446 1446 1446 1446 1446 1446 1445 1445 1445 1445 1445 1444 1444 1444 1444 1444 1444 1445 1444 1445 1445 1445
1465 1464 1462 1460 1458 1456 1455 1453 1452 1451 1449 1448 1447 1445 1444 1444 1443 1443 1442 1442 1442 1442 1442 1442 1442 1442 1442 1442 1442 1441 1441 1441 1441 1440 1440 1440 1440 1441 1441 1441 1442 1442 1442
1463 1461 1459 1457 1456 1454 1452 1450 1448 1447 1446 1445 1443 1442 1441 1440 1439 1439 1439 1439 1439 1438 1438 1439 1439 1439 1439 1438 1438 1438 1437 1437 1437 1437 1437 1437 1437 1438 1438 1439 1439 1439 1439
1461 1459 1457 1455 1453 1451 1449 1447 1446 1445 1443 1442 1440 1439 1438 1437 1436 1435 1435 1435 1435 1435 1435 1435 1435 1435 1435 1435 1434 1434 1434 1434 1434 1434 1434 1434 1435 1436 1436 1436 1436 1436 1436
1458 1457 1454 1452 1450 1448 1446 1445 1443 1442 1441 1439 1438 1437 1435 1434 1433 1432 1432 1432 1432 1432 1432 1432 1432 1432 1432 1431 1431 1431 1431 1431 1431 1431 1431 1432 1433 1434 1434 1434 1434 1434 1434
1457 1454 1452 1450 1448 1446 1444 1442 1441 1440 1438 1437 1435 1434 1432 1431 1430 1429 1429 1428 1428 1428 1428 1428 1428 1428 1428 1428 1428 1429 1428 1428 1428 1428 1429 1429 1430 1431 1431 1431 1432 1432 1432
1454 1451 1449 1447 1445 1443 1441 1440 1438 1437 1436 1434 1432 1431 1430 1429 1427 1427 1426 1426 1425 1425 1425 1425 1425 1425 1425 1425 1426 1426 1426 1425 1426 1426 1427 1427 1427 1428 1428 1429 1429 1429 1429
1452 1449 1447 1444 1442 1440 1438 1437 1435 1434 1433 1431 1430 1428 1427 1426 1425 1424 1423 1423 1423 1422 1422 1422 1422 1422 1422 1422 1423 1423 1423 1423 1423 1424 1425 1425 1425 1426 1426 1426 1426 1426 1427
1449 1447 1444 1442 1439 1438 1436 1434 1433 1431 1430 1428 1427 1426 1425 1424 1423 1422 1421 1421 1420 1420 1420 1420 1420 1420 1420 1420 1420 1421 1420 1420 1421 1422 1423 1423 1423 1424 1424 1424 1424 1424 1424
1447 1444 1442 1439 1437 1435 1434 1432 1430 1428 1427 1426 1425 1423 1422 1421 1421 1420 1419 1419 1418 1418 1418 1418 1417 1417 1417 1417 1418 1418 1418 1418 1419 1420 1420 1421 1422 1422 1422 1422 1422 1422 1422
1444 1441 1439 1436 1435 1433 1431 1429 1427 1426 1425 1423 1422 1421 1420 1419 1418 1418 1417 1417 1416 1416 1416 1416 1415 1415 1415 1415 1415 1416 1416 1417 1417 1417 1418 1419 1420 1420 1420 1420 1421 1421 1421
1441 1439 1437 1434 1432 1430 1429 1426 1425 1423 1422 1420 1419 1418 1418 1417 1416 1416 1415 1415 1414 1414 1414 1414 1413 1413 1414 1414 1414 1415 1415 1415 1416 1416 1417 1418 1418 1418 1418 1419 1419 1419 1419
1439 1437 1434 1431 1429 1428 1426 1424 1422 1421 1419 1418 1416 1416 1415 1414 1414 1414 1413 1413 1413 1413 1413 1412 1412 1412 1412 1412 1413 1413 1414 1414 1414 1415 1415 1416 1417 1417 1417 1418 1418 1418 1419
1436 1434 1432 1429 1427 1425 1423 1421 1420 1418 1417 1415 1414 1413 1412 1412 1412 1411 1412 1412 1412 1412 1412 1411 1411 1411 1411 1412 1413 1412 1413 1413 1413 1414 1415 1415 1416 1416 1416 1417 1417 1417 1418
1433 1431 1429 1427 1425 1423 1421 1419 1418 1416 1415 1413 1412 1410 1410 1409 1410 1410 1410 1411 1411 1411 1411 1411 1411 1411 1411 1411 1412 1412 1412 1413 1413 1414 1414 1414 1415 1415 1416 1416 1416 1417 1417